Flag for Germany Weather past 2 weeks in Coburg, Bavaria, Germany

Now
53 °F

Light rain. Overcast.


Feels Like: 53 °F
Forecast: 45 / 56 °F
Wind: 3 mph from Northwest

Location: Bamberg

Current Time: May 26, 2015 at 1:59:47 AM

Latest Report: May 26, 2015 at 1:00 AM


Visibility: 5 mi

Pressure: 29.93 "Hg

Humidity: 94%

Dew point: 52 °F

Location of CoburgLocation

Historic Weather in Coburg — Graph

°F

Coburg temperature yesterday

Maximum temperature yesterday: 65 °F (at 12:00 PM)
Minimum temperature yesterday: 54 °F (at 4:00 AM)
Average temperature yesterday: 58 °F

Past Weeks' High & Low Weather Summary

 TemperatureHumidityPressure
High85 °F (May 12, 4:00 PM)97% (May 25, 10:00 PM)30.38 "Hg (May 25, 10:00 PM)
Low34 °F (May 22, 6:00 AM)24% (May 14, 6:00 PM)29.70 "Hg (May 18, 8:00 PM)
Average57 °F62%30.05 "Hg
* Reported May 11 1:00 AM — May 26 1:00 AM, Coburg, Weather by CustomWeather, © 2015

Note: Actual official high and low records may vary slightly from our data, if they occured in-between our weather recording intervals... More about our weather records

Advertising

Coburg weather history for previous 24 hours

 ConditionsComfort  
Time TempWeatherWind HumidityBarometerVisibility
1:00 AM
Tue, May 26
53 °FLight rain. Overcast.3 mph94%29.93 "Hg5 mi
12:00 AM54 °FLow clouds.2 mph91%29.93 "Hg7 mi
11:00 PM
Mon, May 25
55 °FLow clouds.2 mph94%29.93 "Hg3 mi
10:00 PM55 °FFog.1 mph97%29.93 "Hg2 mi
9:00 PM56 °FFog.No wind93%29.92 "Hg4 mi
8:00 PM57 °FPartly sunny.2 mph90%29.91 "Hg7 mi
7:00 PM57 °FLight rain. Overcast.1 mph91%29.90 "Hg5 mi
6:00 PM57 °FLight rain. Overcast.2 mph90%29.91 "Hg5 mi
5:00 PM57 °FLight rain. Low clouds.3 mph90%29.91 "Hg4 mi
4:00 PM56 °FLight rain. Low clouds.2 mph91%29.95 "Hg3 mi
3:00 PM56 °FRain. Low clouds.9 mph77%29.93 "Hg3 mi
2:00 PM64 °FOvercast.5 mph67%29.90 "Hg10 mi
1:00 PM64 °FOvercast.5 mph62%29.92 "Hg11 mi
12:00 PM65 °FOvercast.2 mph58%29.93 "Hg12 mi
11:00 AM64 °FOvercast.2 mph60%29.95 "Hg12 mi
10:00 AM60 °FOvercast.3 mph70%29.97 "Hg9 mi
9:00 AM58 °FOvercast.3 mph75%29.98 "Hg8 mi
8:00 AM56 °FOvercast.1 mph80%29.98 "Hg8 mi
7:00 AM55 °FOvercast.3 mph82%29.99 "Hg7 mi
6:00 AM55 °FOvercast.2 mph83%30.00 "Hg7 mi
5:00 AM55 °FOvercast.2 mph84%30.00 "Hg7 mi
4:00 AM54 °FOvercast.2 mph87%30.01 "Hg7 mi
3:00 AM57 °FOvercast.2 mph79%30.01 "Hg9 mi
2:00 AM56 °FOvercast.2 mph80%30.03 "Hg9 mi
1:00 AM58 °FOvercast.2 mph74%30.04 "Hg13 mi
Weather by CustomWeather, © 2015

See weather overviewHow to use our weather pages